Wind_Speed
5 9 12 3 7 3 15 20 26 16 14 16 12 16 14 6 9 14 16 13 10 11 8 7 7 8 10 11 16 19 18 16 13 11 11 10 8 7 10 9 9 11 11 11
11 16 6 11 13 15 12 22 25 14 19 21 20 16 18 17 11 13 13 9 7 13 15 13 11 10 7 6 14 20 21 20 18 15 13 12 8 6 7 5 6 7 8 9
11 8 9 19 21 16 15 29 25 22 10 20 17 22 25 27 21 19 20 14 10 9 8 6 6 5 8 7 10 15 20 21 21 19 18 15 11 9 7 8 8 11 13 14
11 3 6 11 13 13 19 20 21 19 12 10 20 8 31 30 28 28 25 22 19 13 9 7 5 6 9 8 10 13 18 23 22 23 21 17 15 14 14 12 13 12 14 14
11 8 11 13 8 9 16 15 23 17 20 10 17 12 17 28 36 32 32 30 24 20 15 7 6 3 6 10 8 10 16 21 23 23 23 21 20 19 16 15 13 13 13 16
18 16 13 10 10 16 6 15 18 21 16 9 23 22 22 18 22 26 33 31 24 22 21 12 7 7 5 6 7 12 17 22 25 26 24 22 21 19 16 16 16 16 17 13
18 21 20 17 15 11 15 17 6 1 4 9 9 14 22 19 15 19 25 25 24 24 21 18 16 15 13 9 8 10 13 17 20 22 21 20 18 19 19 19 18 16 16 13
18 18 20 20 11 7 17 20 13 7 5 4 5 11 10 12 15 14 26 29 27 27 27 23 22 22 17 16 14 15 11 16 14 12 17 19 16 17 19 20 18 18 15 15
13 14 6 8 6 11 12 23 24 19 5 4 5 10 18 22 15 17 23 34 32 30 33 32 29 28 26 23 23 20 21 20 19 15 15 20 20 18 15 18 20 19 21 20
24 22 15 10 11 9 15 23 14 12 4 4 4 7 8 11 17 19 24 34 36 33 33 33 32 33 31 30 30 29 27 25 23 21 16 20 24 23 20 20 24 25 25 25
22 31 30 19 17 13 10 12 12 12 8 8 3 6 15 14 17 22 25 31 31 29 30 34 37 36 33 38 34 33 31 27 27 18 20 22 24 25 26 26 26 31 31 29
4 10 24 26 20 13 15 14 15 13 7 7 7 11 18 19 19 23 28 30 31 27 23 21 29 32 23 27 31 21 22 26 27 24 27 27 27 29 30 29 27 26 28 26
5 2 6 14 16 9 9 13 17 18 22 13 7 9 19 14 15 17 21 22 25 23 33 25 10 15 15 18 19 20 24 27 28 27 27 27 29 29 23 22 19 15 14 18
3 1 4 3 4 6 5 4 6 5 8 11 13 11 13 17 20 13 10 13 15 20 23 9 15 17 15 18 21 23 24 23 22 19 18 18 18 20 19 14 15 18 21 25
4 4 7 8 5 1 4 3 1 6 6 6 8 13 13 17 11 7 5 6 8 11 10 10 9 14 19 23 28 26 22 20 15 16 15 16 15 15 15 20 24 22 25 26
5 6 7 14 9 2 2 2 2 4 1 5 4 10 13 18 14 10 4 8 9 10 11 9 12 14 16 18 18 13 13 12 9 8 10 14 16 18 19 20 24 27 30 31
2 6 5 9 9 8 4 10 8 8 9 5 3 9 16 14 8 3 2 5 10 7 7 10 11 9 6 7 8 8 8 9 13 16 19 22 22 23 24 29 31 31 36 35
7 7 6 7 7 3 14 14 13 7 9 8 8 18 11 9 2 3 5 5 4 5 7 6 5 5 6 9 10 11 14 16 18 19 22 23 25 27 29 32 35 34 32 32
6 4 5 4 5 12 20 18 17 4 7 8 6 5 2 5 4 2 5 7 8 8 5 1 8 11 9 9 11 14 17 20 23 25 28 29 29 29 29 30 30 30 30 29
3 2 6 11 5 7 12 20 17 14 18 21 18 20 20 23 7 3 6 7 7 6 1 0 4 5 11 14 17 21 23 24 25 26 27 28 29 29 28 28 28 27 28 27
3 3 5 7 3 3 9 14 16 12 9 10 15 18 16 10 3 3 5 7 9 5 3 3 7 11 15 19 22 22 21 22 22 24 25 26 28 28 27 28 24 23 24 24
5 3 4 5 3 4 11 13 14 5 8 4 5 5 4 5 7 10 6 7 4 3 5 8 11 17 21 22 18 16 15 18 18 20 21 22 23 24 24 25 22 23 22 21
5 4 2 2 3 4 14 14 11 11 7 4 5 4 9 7 8 9 6 4 3 6 10 10 15 19 22 20 15 16 16 17 18 18 19 19 18 20 22 23 22 22 22 17
9 7 3 1 3 1 4 11 11 3 2 3 8 10 9 10 12 11 8 5 5 8 11 15 18 19 23 19 17 15 17 18 19 20 19 19 19 21 22 23 23 22 19 13
8 10 7 6 4 4 5 6 4 4 7 10 13 14 13 14 13 13 14 8 9 11 14 15 18 23 21 19 18 19 20 21 21 20 18 19 20 21 21 14 12 10 10 14
5 6 7 8 6 3 7 9 11 10 12 13 18 12 12 14 15 14 11 10 11 12 15 18 23 23 21 20 19 20 21 19 16 13 13 15 18 17 10 8 10 14 16 15
Wind_Direction
293 258 229 125 197 68 175 197 190 207 225 233 236 243 255 229 231 216 220 198 203 230 244 268 251 258 273 246 206 197 203 210 207 193 192 192 188 189 193 196 213 236 239 248
245 260 286 288 259 266 213 203 201 193 213 225 231 251 234 233 214 212 219 204 204 214 228 234 245 247 245 231 212 203 202 208 208 214 209 211 206 202 229 225 236 225 222 233
251 239 281 286 274 249 244 205 209 210 225 217 237 243 230 226 233 227 236 239 227 216 190 216 214 235 215 220 220 209 208 212 208 216 223 224 227 230 254 254 272 261 266 264
259 29 331 310 292 254 233 221 220 212 207 218 216 256 234 232 238 233 232 236 232 222 211 225 234 232 215 198 201 200 206 208 213 219 231 237 235 239 252 254 273 277 270 275
238 226 313 312 295 296 248 242 225 216 218 240 215 226 261 229 234 232 231 234 237 233 235 177 165 164 205 202 198 192 191 202 213 222 230 239 242 243 252 260 263 262 264 263
271 282 289 285 262 259 279 223 208 225 227 265 253 217 277 256 262 251 230 229 232 236 235 228 185 209 215 204 212 205 195 197 206 217 231 237 249 257 262 262 265 266 266 269
263 268 264 262 268 248 200 171 124 178 221 238 279 217 264 285 271 265 244 230 227 231 232 232 222 222 231 232 222 205 206 212 217 229 235 241 254 259 256 255 262 270 269 282
257 287 256 245 231 236 222 219 208 195 204 215 196 222 261 288 286 240 235 234 235 233 233 234 242 232 229 234 237 243 232 225 212 239 230 237 264 264 259 258 266 267 264 268
234 245 262 223 254 254 280 280 281 252 200 187 218 248 254 272 268 243 224 220 222 230 231 231 236 236 235 241 248 248 247 239 230 223 243 242 257 271 263 263 263 261 259 262
249 255 272 273 280 284 283 267 239 231 164 244 272 270 234 266 237 232 226 217 221 228 232 235 237 238 236 240 244 240 244 244 239 242 264 266 264 274 270 272 265 261 259 260
254 246 260 266 269 273 255 233 226 238 227 173 187 233 236 244 239 233 223 217 219 223 232 237 242 245 242 242 247 238 242 248 260 261 270 272 279 278 272 275 282 280 274 270
358 235 238 251 268 235 252 255 259 252 254 216 229 249 250 232 230 233 228 227 224 215 222 240 240 226 242 258 271 268 264 262 260 266 270 277 283 278 271 260 269 272 273 272
331 308 235 220 213 214 226 238 252 266 256 247 207 251 270 221 219 234 249 257 257 272 277 247 323 269 253 272 277 275 270 269 272 274 272 266 266 265 273 267 263 257 254 252
248 247 63 167 209 205 188 219 226 251 253 252 232 241 249 223 212 217 258 261 265 261 262 190 228 251 265 270 269 270 275 280 280 277 272 273 272 261 259 246 252 262 261 265
220 176 117 113 125 146 145 143 229 248 223 230 267 227 243 218 184 173 183 214 238 231 228 248 253 273 286 288 286 286 290 284 284 283 269 259 251 254 249 260 265 264 270 280
190 175 128 130 143 160 188 146 142 109 88 266 223 207 170 158 155 157 210 242 234 217 217 235 257 264 266 271 275 279 278 281 265 258 257 259 260 267 273 273 274 279 280 282
207 202 228 169 180 171 99 100 119 141 126 104 146 163 157 154 149 144 246 212 199 217 232 241 268 273 267 262 247 241 244 264 279 279 279 278 281 279 276 272 270 269 272 276
225 243 214 165 148 99 150 134 129 158 154 130 158 139 135 135 108 17 207 197 238 258 288 296 282 259 253 240 246 264 270 278 280 283 284 279 272 268 266 264 264 268 272 277
205 225 209 193 107 149 159 153 144 167 135 147 143 137 206 279 298 6 210 226 230 228 226 212 204 213 229 248 263 269 272 275 277 276 275 274 272 271 271 270 271 274 276 278
37 199 204 167 149 188 217 215 215 228 258 261 261 270 272 263 229 261 204 217 229 196 102 69 221 277 286 285 287 289 289 286 284 281 278 277 277 275 272 271 271 272 275 279
136 110 169 167 192 211 214 217 214 219 273 303 268 258 265 296 253 255 205 220 213 217 249 253 293 311 311 300 300 300 296 292 288 282 280 279 278 275 273 270 271 273 278 284
170 152 166 193 205 231 209 214 219 268 287 237 253 235 253 260 265 286 268 229 223 237 280 272 294 313 314 312 306 299 296 290 290 288 289 287 284 281 279 278 282 284 287 291
188 189 183 207 244 235 214 221 243 263 300 299 234 233 288 281 284 291 294 279 253 263 262 272 303 302 307 310 305 302 301 301 298 295 293 289 287 285 284 286 286 287 286 281
205 182 217 219 192 236 232 240 268 305 325 283 307 302 303 306 309 308 308 294 262 267 278 281 284 296 310 308 300 302 304 306 303 298 299 292 289 287 287 287 288 283 283 270
217 245 235 222 227 291 293 238 269 286 273 295 313 303 283 285 296 309 307 283 259 263 269 290 297 304 302 300 309 311 307 306 304 299 296 287 290 299 302 289 291 284 271 277
253 267 240 257 266 316 279 250 239 254 279 298 310 296 284 290 292 290 281 274 270 277 284 292 294 301 309 310 309 307 306 304 304 296 290 294 305 304 281 272 267 256 265 274
Height
3188 3189 3190 3190 3193 3193 3195 3196 3194 3197 3199 3197 3193 3194 3195 3196 3196 3197 3198 3199 3199 3200 3203 3206 3208 3209 3209 3210 3212 3214 3216 3219 3222 3224 3225 3225 3226 3228 3230 3230 3231 3232 3232 3232
3189 3185 3188 3190 3192 3192 3195 3194 3193 3195 3192 3194 3194 3192 3193 3195 3195 3196 3197 3196 3197 3201 3202 3204 3206 3207 3208 3208 3210 3212 3215 3217 3220 3222 3224 3225 3226 3228 3229 3229 3230 3231 3232 3232
3187 3185 3187 3188 3188 3191 3191 3190 3190 3191 3190 3190 3192 3191 3190 3191 3191 3192 3193 3196 3198 3200 3202 3203 3205 3206 3206 3206 3208 3210 3213 3216 3219 3221 3221 3222 3225 3226 3227 3227 3228 3229 3228 3228
3186 3185 3185 3185 3184 3187 3188 3188 3190 3189 3189 3188 3191 3190 3187 3188 3188 3188 3190 3190 3194 3198 3202 3204 3204 3205 3204 3206 3206 3208 3210 3213 3216 3218 3220 3221 3222 3223 3223 3223 3224 3225 3225 3225
3184 3183 3185 3183 3184 3184 3184 3186 3190 3191 3191 3189 3187 3191 3182 3183 3183 3181 3183 3186 3190 3195 3200 3202 3204 3204 3204 3204 3205 3206 3208 3211 3213 3215 3217 3218 3219 3221 3221 3221 3221 3222 3221 3220
3179 3182 3183 3182 3183 3183 3183 3185 3188 3191 3192 3189 3185 3185 3175 3176 3175 3177 3180 3184 3186 3190 3195 3200 3203 3204 3204 3204 3204 3204 3205 3207 3209 3211 3214 3215 3216 3218 3218 3218 3218 3218 3217 3216
3176 3177 3179 3180 3180 3180 3182 3182 3189 3193 3192 3183 3180 3182 3173 3173 3172 3173 3176 3181 3185 3188 3193 3197 3200 3202 3203 3203 3203 3203 3204 3205 3207 3209 3211 3212 3213 3214 3213 3213 3214 3214 3214 3213
3175 3172 3173 3176 3177 3178 3177 3179 3179 3185 3186 3178 3178 3176 3170 3168 3167 3168 3172 3177 3181 3186 3189 3194 3197 3199 3199 3201 3202 3202 3204 3203 3204 3205 3206 3208 3209 3209 3208 3210 3210 3211 3210 3210
3171 3170 3170 3172 3173 3175 3173 3172 3174 3174 3174 3173 3172 3171 3167 3165 3163 3164 3166 3172 3177 3180 3183 3187 3190 3193 3196 3197 3199 3200 3201 3201 3201 3200 3201 3203 3205 3205 3205 3205 3206 3206 3207 3206
3169 3167 3168 3169 3169 3169 3169 3169 3169 3169 3172 3172 3167 3165 3164 3163 3161 3162 3163 3167 3172 3175 3179 3183 3186 3187 3189 3192 3193 3194 3194 3195 3197 3199 3199 3199 3200 3201 3200 3200 3201 3200 3200 3200
3164 3166 3163 3165 3164 3164 3166 3165 3165 3165 3165 3164 3168 3164 3163 3162 3161 3161 3163 3165 3169 3172 3175 3178 3181 3182 3185 3186 3185 3185 3186 3187 3185 3189 3194 3195 3195 3195 3194 3194 3194 3194 3193 3192
3159 3158 3157 3160 3162 3160 3161 3161 3160 3161 3162 3161 3161 3159 3158 3158 3160 3163 3164 3166 3166 3169 3172 3174 3174 3166 3179 3176 3176 3170 3179 3183 3185 3187 3188 3189 3189 3188 3187 3180 3183 3184 3185 3186
3157 3155 3153 3155 3159 3157 3156 3155 3156 3156 3156 3156 3158 3157 3154 3156 3158 3162 3165 3167 3170 3172 3172 3170 3171 3172 3175 3178 3175 3176 3179 3182 3182 3182 3182 3182 3182 3182 3181 3180 3179 3179 3179 3181
3154 3154 3152 3151 3153 3154 3153 3152 3152 3153 3152 3152 3153 3153 3152 3153 3155 3159 3164 3164 3166 3167 3168 3163 3168 3174 3174 3173 3174 3175 3175 3177 3176 3175 3176 3177 3176 3177 3177 3176 3176 3177 3177 3176
3152 3151 3151 3151 3152 3152 3151 3150 3149 3149 3149 3150 3151 3150 3149 3151 3157 3160 3162 3163 3163 3165 3166 3166 3167 3168 3168 3169 3169 3170 3167 3170 3171 3170 3171 3171 3170 3172 3172 3173 3172 3171 3171 3170
3148 3150 3149 3150 3151 3151 3150 3150 3149 3148 3148 3148 3148 3147 3148 3152 3156 3160 3161 3162 3163 3165 3165 3166 3167 3167 3169 3169 3169 3167 3165 3167 3167 3167 3167 3168 3167 3167 3167 3167 3168 3166 3165 3164
3145 3146 3147 3148 3149 3149 3150 3150 3149 3147 3147 3149 3149 3149 3150 3155 3159 3161 3162 3163 3163 3163 3164 3165 3166 3166 3166 3166 3166 3165 3165 3166 3166 3166 3166 3165 3165 3164 3164 3165 3163 3161 3160 3158
3142 3143 3144 3145 3146 3150 3151 3149 3149 3149 3147 3148 3149 3151 3153 3154 3158 3160 3161 3161 3162 3162 3162 3162 3162 3163 3164 3165 3165 3164 3164 3164 3163 3162 3160 3159 3159 3158 3157 3157 3155 3154 3151 3150
3140 3141 3142 3143 3143 3148 3148 3148 3148 3151 3150 3150 3151 3152 3153 3154 3155 3158 3160 3161 3161 3161 3160 3160 3162 3164 3164 3163 3163 3162 3162 3160 3159 3157 3156 3154 3153 3151 3150 3149 3147 3145 3144 3143
3138 3139 3141 3141 3142 3145 3144 3145 3147 3146 3146 3147 3150 3148 3147 3151 3147 3154 3156 3159 3159 3159 3158 3159 3159 3159 3159 3158 3157 3156 3156 3154 3153 3151 3149 3148 3147 3144 3143 3141 3139 3139 3137 3137
3138 3139 3139 3139 3139 3140 3141 3143 3145 3147 3149 3145 3145 3146 3147 3149 3150 3152 3154 3156 3156 3158 3157 3155 3156 3155 3156 3155 3153 3150 3149 3147 3146 3145 3144 3142 3141 3139 3137 3135 3134 3133 3131 3130
3138 3139 3140 3140 3139 3140 3138 3140 3143 3144 3144 3145 3146 3146 3147 3148 3148 3150 3151 3151 3152 3153 3152 3153 3153 3153 3151 3149 3147 3145 3144 3142 3140 3138 3137 3135 3134 3132 3130 3128 3128 3127 3124 3123
3138 3138 3139 3140 3139 3138 3137 3139 3141 3142 3142 3143 3145 3146 3147 3146 3147 3146 3146 3147 3148 3150 3149 3149 3149 3149 3148 3145 3142 3141 3139 3137 3135 3133 3131 3129 3127 3126 3124 3122 3121 3119 3118 3117
3135 3136 3137 3138 3138 3138 3138 3139 3140 3141 3142 3143 3143 3143 3143 3144 3144 3144 3144 3144 3145 3146 3145 3146 3146 3145 3142 3139 3137 3135 3134 3132 3130 3128 3126 3124 3122 3120 3119 3117 3115 3113 3113 3113
3135 3135 3136 3137 3137 3137 3138 3139 3140 3141 3141 3142 3142 3141 3141 3141 3141 3140 3140 3140 3142 3142 3142 3142 3141 3139 3136 3134 3131 3129 3128 3126 3124 3122 3121 3120 3117 3115 3113 3111 3110 3109 3109 3108
3134 3135 3135 3136 3136 3137 3138 3138 3139 3140 3140 3141 3140 3138 3138 3138 3138 3138 3138 3138 3138 3138 3138 3137 3136 3132 3130 3128 3126 3125 3123 3121 3120 3118 3117 3115 3112 3110 3108 3107 3107 3106 3104 3104